Temperature
18 17 17 18 17 17 18 18 18 18 19 18 18 17 17 17 17 17 17 17 17 17 17 17 17 17 17 16 16 16 16 16 16 16 16 15 15 15
17 17 17 17 18 17 17 17 17 18 18 18 17 17 17 17 17 16 16 17 17 17 17 17 17 16 16 16 16 16 16 16 16 15 15 15 15 15
17 17 17 17 17 17 17 17 17 17 17 17 17 17 16 16 16 16 16 16 16 16 16 16 16 16 16 16 16 16 16 15 15 15 15 15 15 15
17 17 17 17 17 17 17 17 17 17 17 17 17 16 16 16 16 16 16 16 16 16 16 16 16 16 16 15 15 15 15 15 15 15 15 15 15 15
17 17 17 16 16 16 16 16 16 16 16 16 16 16 16 16 16 16 15 16 15 16 16 15 15 15 15 15 15 15 15 15 15 15 15 15 14 14
16 16 16 16 16 16 16 16 16 16 16 16 16 16 16 15 15 15 15 15 15 15 15 15 15 15 15 15 15 15 15 15 14 14 14 14 14 14
16 16 16 16 16 16 16 16 16 16 16 16 16 16 16 15 15 15 15 15 15 15 15 14 14 14 14 14 14 14 14 14 14 14 14 14 14 14
16 16 16 16 16 16 16 16 15 15 15 15 16 15 15 15 15 15 15 15 15 14 14 14 14 14 14 14 14 14 14 14 14 14 14 14 13 14
15 15 16 16 15 15 15 15 15 15 15 15 15 15 14 14 14 14 14 14 14 14 14 14 14 14 14 14 13 13 13 13 13 13 13 13 13 13
15 15 15 15 15 15 15 15 15 15 15 14 14 14 14 14 14 14 13 13 13 13 13 13 14 14 14 13 13 13 13 13 13 13 13 13 13 13
15 15 15 15 15 15 15 14 14 14 14 14 14 14 14 14 14 13 13 13 14 14 13 13 13 13 13 13 13 13 13 13 13 13 13 13 13 12
15 15 15 15 15 15 14 14 14 14 14 13 14 13 13 13 13 13 13 13 13 13 13 12 13 13 13 13 13 12 12 12 12 12 12 12 12 12
15 15 15 15 14 14 14 14 14 14 13 13 13 13 13 13 13 12 12 12 12 13 12 12 12 12 12 12 12 12 12 12 12 12 12 12 12 11
14 14 14 14 14 14 14 14 14 13 13 13 13 13 13 13 12 12 12 12 12 12 12 12 11 12 12 12 12 12 12 12 11 11 11 11 11 11
14 14 14 14 14 13 13 13 13 13 13 13 13 13 13 12 12 12 12 12 11 11 11 11 11 11 11 12 12 11 11 11 11 11 11 11 11 11
13 13 13 13 13 13 13 13 13 12 12 13 12 12 12 12 11 11 11 11 11 11 11 11 11 11 11 11 11 11 11 11 11 10 10 10 10 10
13 13 13 13 12 12 12 12 12 12 12 12 12 12 12 12 11 11 11 11 11 11 11 11 11 11 11 10 11 11 11 11 11 10 10 10 10 10
12 12 12 12 12 12 12 12 12 12 12 11 11 11 11 11 11 11 11 11 11 11 11 10 10 10 10 10 10 10 10 10 10 10 10 10 10 10
12 12 12 12 11 11 11 11 11 11 11 11 11 11 11 11 11 11 10 10 10 10 10 10 10 10 10 10 10 10 9 9 9 9 9 9 9 9
11 11 11 11 11 11 11 11 10 10 10 10 10 10 10 10 10 10 10 10 10 10 10 10 10 10 10 10 10 9 9 9 9 9 9 9 9 9
11 10 10 10 10 10 10 10 10 10 10 9 10 10 10 10 10 10 10 9 9 9 9 10 9 9 9 9 9 9 9 9 8 8 8 8 8 8
10 10 10 10 10 9 9 9 9 9 9 9 9 9 9 9 9 9 9 9 9 9 9 9 9 9 9 9 9 9 9 8 8 8 8 8 8 8
10 9 9 9 9 9 9 9 9 9 9 9 9 8 8 8 8 8 9 9 8 9 8 8 8 8 8 8 8 8 8 8 8 8 8 8 8 8
Wind_Speed
6 6 6 5 5 5 5 5 5 6 4 3 3 2 3 3 2 5 4 4 6 7 7 7 6 7 7 6 6 7 7 7 8 8 8 9 9 10
5 6 6 6 4 5 5 5 5 6 5 3 3 3 3 3 3 4 4 6 8 8 8 7 7 6 6 6 6 6 6 7 7 7 8 8 9 9
7 7 6 6 5 5 5 5 5 6 6 5 4 3 3 4 2 5 5 6 5 8 8 8 8 7 7 7 6 6 6 6 6 7 7 8 8 8
7 7 7 6 6 6 5 6 5 5 7 6 5 4 4 4 3 5 5 5 4 5 7 8 8 8 7 7 7 6 5 5 6 6 7 7 8 8
8 8 8 7 7 5 6 6 6 6 5 6 5 3 4 3 4 5 5 4 5 4 6 8 8 8 8 7 7 7 6 6 6 6 6 6 7 7
8 8 8 7 7 6 6 6 6 6 5 6 5 5 4 3 4 4 4 3 4 3 2 3 6 9 9 9 8 7 7 6 6 6 6 6 6 6
7 7 7 5 4 5 5 4 5 6 6 6 6 5 4 3 4 4 4 4 2 2 3 3 3 4 5 8 8 7 6 6 6 6 6 6 7 7
7 7 6 6 5 4 4 4 5 6 6 6 6 5 5 5 4 5 5 4 4 2 4 4 4 4 3 3 4 5 5 5 6 6 7 7 7 7
6 6 6 4 5 5 5 6 5 5 6 7 7 6 5 4 4 6 5 6 5 3 4 5 4 5 4 3 6 6 6 6 6 7 7 8 8 8
7 7 6 6 5 5 5 5 5 5 6 7 6 6 5 3 4 6 6 6 6 5 4 6 5 5 5 4 6 7 7 7 8 8 8 8 8 8
7 7 7 7 3 4 6 6 5 5 4 3 2 2 2 3 5 5 5 6 6 4 3 5 5 5 5 5 5 9 9 9 8 8 8 8 8 9
6 7 7 6 5 5 6 6 6 5 4 4 4 6 6 6 7 6 6 6 6 5 2 4 5 4 4 4 3 3 5 8 9 9 9 8 7 6
6 6 4 7 6 6 7 6 5 4 5 5 5 5 5 5 5 5 5 6 7 6 3 4 5 5 5 5 5 4 3 3 4 5 7 8 8 6
7 5 2 5 5 6 6 3 4 6 6 5 5 5 5 4 4 4 4 6 6 7 6 5 6 6 6 6 5 4 4 3 4 4 4 5 7 8
5 1 3 5 5 5 7 7 6 6 6 6 5 5 4 4 4 4 5 6 8 8 6 6 7 6 7 7 6 5 5 4 4 4 4 4 4 4
3 3 5 7 7 5 6 6 6 5 5 5 5 5 5 4 5 4 5 5 5 5 4 5 6 7 7 7 6 6 5 4 4 4 4 5 4 4
3 4 4 4 5 5 4 5 5 5 5 5 5 5 5 5 4 4 4 5 5 5 4 4 4 5 6 6 6 6 5 5 5 4 4 6 5 4
5 5 5 5 5 5 5 5 5 4 4 5 5 5 5 5 5 4 4 5 5 5 5 4 4 4 5 4 4 6 5 5 5 4 5 6 6 4
5 5 4 4 4 4 4 5 5 4 4 5 5 5 5 5 5 5 4 5 6 5 5 4 5 5 6 6 4 3 5 5 5 5 5 5 6 5
4 3 3 3 3 3 3 4 3 3 4 5 5 5 5 5 5 5 5 6 6 6 5 4 4 4 6 6 6 4 5 5 5 5 5 6 6 4
3 3 3 3 3 3 3 4 4 4 4 4 4 4 5 5 5 6 5 5 6 6 6 5 4 5 6 5 5 4 3 4 4 5 5 6 6 6
3 3 3 3 3 3 4 4 4 4 4 5 4 4 4 5 5 6 5 5 6 5 6 5 5 5 5 5 6 6 5 3 4 4 4 5 5 6
3 3 3 4 4 4 4 4 5 4 4 4 4 4 4 5 5 5 5 5 5 5 5 5 4 4 5 6 6 5 5 4 3 3 4 3 4 6
Wind_Direction
248 239 249 253 253 260 261 263 273 281 279 254 252 259 256 254 209 237 242 195 207 217 226 234 238 239 240 243 247 253 254 256 256 255 256 256 252 251
250 259 257 258 258 256 255 256 258 269 279 284 275 277 301 281 221 253 249 200 210 211 216 225 233 236 236 238 242 246 250 252 252 255 257 257 254 253
247 244 245 258 260 263 260 259 256 258 267 274 272 271 272 277 261 259 253 245 218 195 210 222 228 232 235 237 237 242 246 249 252 256 259 258 255 254
244 242 242 239 241 257 264 263 263 262 260 270 274 269 257 260 259 265 265 261 263 176 200 219 225 228 232 234 233 237 245 251 256 259 263 261 258 255
245 242 241 243 246 249 255 260 261 258 256 262 266 271 264 262 258 253 256 260 264 196 192 203 213 219 223 226 231 236 242 248 253 257 261 264 260 258
249 245 242 242 244 244 245 250 259 265 257 258 261 260 256 252 257 262 256 246 271 271 246 217 202 207 213 217 223 228 235 242 247 254 256 257 261 261
247 246 243 237 255 258 262 255 255 258 257 256 258 260 261 264 264 270 271 271 250 273 274 254 226 229 216 211 215 220 229 240 247 252 255 257 259 259
250 250 246 224 217 228 256 272 277 258 262 264 261 264 270 268 274 276 277 277 275 259 279 275 267 265 256 244 183 193 221 236 245 252 255 257 257 254
247 249 253 236 211 228 217 219 240 253 259 267 271 272 272 276 278 272 273 280 286 287 280 275 270 270 261 229 166 188 215 233 245 254 260 261 261 257
244 243 242 242 236 233 241 237 237 239 242 247 258 267 272 279 265 264 268 261 258 248 251 271 269 270 273 252 180 196 217 231 241 250 256 261 263 261
240 238 234 233 197 211 231 235 235 237 221 201 237 253 302 279 276 269 264 265 267 261 248 272 276 277 273 261 206 197 213 223 231 239 244 249 257 259
232 231 219 217 190 203 227 231 233 237 240 217 219 225 231 228 225 247 264 267 271 267 237 263 274 278 275 262 260 235 228 218 218 225 229 233 243 257
238 236 218 170 182 208 236 238 238 251 248 244 240 239 236 237 235 237 259 272 274 270 262 253 273 271 271 276 274 265 259 261 244 233 222 219 228 245
251 249 216 160 191 219 232 220 217 242 245 243 248 249 248 248 248 252 256 265 273 274 276 269 272 274 275 277 280 277 270 265 263 262 253 219 223 231
258 240 166 180 198 218 206 202 216 236 243 245 248 253 257 260 259 248 244 246 252 258 257 256 265 272 272 274 278 281 282 278 264 269 268 259 253 252
232 197 187 204 214 212 205 213 230 241 245 249 255 259 261 254 252 259 261 259 260 259 250 249 260 265 266 273 271 270 275 278 278 279 280 273 258 255
212 225 225 221 224 225 230 231 230 226 236 247 253 254 258 258 258 259 262 267 264 267 264 251 249 253 263 271 271 274 277 276 273 275 281 278 269 261
211 226 227 229 233 234 238 238 238 236 240 248 255 257 256 258 259 259 257 261 266 272 277 273 261 261 262 264 263 274 279 280 283 276 274 278 278 278
219 232 231 235 241 243 243 244 242 242 250 254 254 258 259 260 262 265 265 266 267 270 275 272 265 262 267 270 248 234 277 286 285 280 281 286 286 285
234 237 232 229 233 241 248 249 246 244 250 257 259 263 263 265 267 267 264 267 270 273 274 273 266 268 270 277 284 271 239 271 282 283 288 289 290 292
229 226 226 228 228 234 241 245 245 249 258 264 267 275 276 272 269 270 269 261 264 268 270 271 272 262 267 270 274 277 268 238 260 276 284 284 286 284
217 217 220 227 228 232 235 239 243 244 249 257 264 269 276 280 278 276 276 273 267 267 271 273 264 255 256 258 265 276 281 273 250 261 272 275 283 279
221 219 215 216 223 230 236 242 251 253 254 262 267 269 274 278 279 279 279 276 275 271 267 266 264 262 259 256 263 273 277 278 288 288 288 270 261 265
Height
1554 1554 1554 1554 1554 1553 1553 1553 1553 1551 1550 1550 1549 1549 1548 1547 1546 1545 1544 1543 1543 1542 1542 1541 1541 1540 1540 1539 1539 1538 1538 1537 1537 1537 1537 1536 1536 1536
1551 1550 1550 1551 1551 1550 1550 1550 1549 1549 1548 1547 1546 1546 1545 1545 1543 1542 1541 1540 1539 1539 1538 1538 1537 1537 1536 1536 1535 1535 1534 1534 1533 1533 1533 1532 1532 1532
1547 1548 1547 1547 1547 1547 1547 1547 1546 1546 1545 1544 1544 1542 1541 1540 1539 1539 1539 1537 1537 1535 1535 1534 1533 1533 1532 1532 1531 1531 1530 1530 1529 1529 1528 1528 1528 1527
1544 1544 1544 1544 1543 1543 1543 1543 1543 1542 1542 1541 1540 1539 1538 1537 1536 1535 1535 1535 1534 1532 1531 1530 1529 1529 1528 1528 1527 1527 1526 1526 1525 1525 1524 1524 1524 1523
1540 1540 1540 1540 1540 1540 1539 1540 1540 1539 1538 1538 1537 1536 1535 1534 1533 1532 1532 1530 1530 1529 1527 1526 1526 1525 1524 1524 1523 1523 1522 1522 1521 1521 1520 1519 1519 1519
1536 1536 1536 1536 1535 1535 1535 1535 1535 1535 1535 1535 1534 1533 1532 1531 1530 1530 1529 1528 1527 1526 1525 1524 1522 1521 1520 1520 1519 1519 1518 1518 1517 1517 1516 1515 1515 1514
1532 1532 1532 1531 1531 1531 1532 1532 1532 1532 1532 1531 1531 1530 1530 1528 1528 1527 1526 1525 1524 1523 1522 1521 1520 1519 1518 1516 1515 1515 1514 1514 1513 1513 1512 1511 1510 1509
1527 1527 1527 1526 1527 1527 1527 1527 1528 1528 1528 1528 1528 1527 1526 1525 1524 1524 1523 1522 1521 1520 1519 1519 1518 1517 1515 1514 1512 1511 1510 1510 1509 1508 1508 1507 1506 1505
1523 1523 1524 1524 1523 1523 1523 1523 1523 1523 1524 1524 1524 1523 1522 1521 1521 1520 1519 1518 1517 1516 1516 1515 1514 1513 1512 1510 1509 1508 1507 1506 1505 1504 1503 1502 1501 1501
1519 1519 1519 1520 1520 1520 1521 1520 1520 1519 1519 1520 1519 1518 1518 1517 1516 1516 1515 1514 1513 1513 1512 1511 1510 1509 1508 1507 1505 1504 1503 1502 1501 1500 1499 1498 1497 1496
1514 1515 1515 1516 1515 1516 1516 1516 1516 1516 1516 1515 1514 1514 1513 1513 1513 1512 1512 1511 1510 1510 1508 1508 1507 1505 1504 1503 1501 1499 1498 1498 1497 1496 1495 1494 1493 1492
1510 1511 1511 1511 1511 1511 1512 1512 1512 1512 1512 1511 1510 1510 1509 1509 1508 1508 1508 1508 1507 1506 1504 1504 1503 1502 1501 1499 1498 1496 1495 1494 1492 1491 1491 1490 1490 1489
1506 1507 1507 1507 1507 1507 1507 1508 1508 1508 1508 1507 1507 1507 1506 1506 1505 1504 1503 1503 1503 1501 1501 1499 1499 1498 1497 1496 1494 1493 1492 1490 1489 1488 1487 1487 1486 1485
1502 1502 1502 1502 1502 1502 1503 1503 1503 1504 1504 1504 1504 1504 1503 1502 1501 1500 1498 1497 1497 1496 1495 1494 1494 1494 1493 1492 1491 1489 1488 1487 1486 1485 1484 1483 1482 1482
1497 1497 1497 1497 1497 1497 1497 1498 1499 1499 1500 1500 1500 1499 1499 1497 1496 1495 1494 1493 1492 1491 1491 1489 1489 1489 1489 1488 1487 1486 1485 1484 1483 1481 1480 1480 1478 1477
1491 1491 1491 1492 1492 1493 1493 1494 1494 1495 1495 1496 1495 1495 1494 1493 1492 1492 1491 1490 1489 1488 1486 1485 1484 1484 1484 1483 1483 1481 1481 1480 1479 1478 1476 1476 1475 1474
1486 1486 1487 1487 1488 1489 1489 1490 1490 1490 1491 1491 1491 1490 1490 1489 1488 1487 1486 1486 1485 1484 1483 1481 1480 1479 1479 1479 1478 1477 1477 1476 1475 1474 1472 1472 1471 1470
1482 1482 1482 1483 1484 1485 1485 1486 1486 1486 1487 1487 1486 1486 1485 1485 1484 1483 1482 1482 1481 1480 1479 1478 1477 1476 1475 1474 1474 1473 1473 1472 1471 1470 1469 1468 1467 1466
1477 1478 1479 1479 1480 1481 1481 1482 1482 1482 1482 1483 1482 1482 1481 1481 1480 1479 1478 1477 1477 1476 1475 1474 1474 1472 1471 1470 1469 1469 1469 1468 1467 1466 1465 1464 1463 1462
1474 1474 1475 1475 1476 1476 1477 1478 1478 1478 1478 1479 1479 1478 1478 1477 1476 1475 1474 1473 1472 1472 1471 1471 1470 1468 1468 1467 1466 1464 1464 1464 1463 1462 1461 1460 1459 1458
1470 1471 1471 1472 1472 1472 1473 1474 1474 1475 1475 1475 1474 1474 1473 1473 1472 1471 1470 1468 1468 1467 1466 1466 1464 1464 1463 1463 1462 1461 1460 1459 1459 1458 1457 1456 1454 1453
1467 1467 1467 1468 1468 1469 1469 1470 1470 1470 1470 1471 1470 1470 1469 1468 1467 1466 1465 1464 1463 1462 1461 1461 1460 1460 1460 1459 1457 1456 1456 1455 1454 1454 1453 1453 1451 1449
1463 1463 1463 1464 1464 1465 1466 1466 1466 1466 1466 1466 1466 1465 1465 1464 1463 1462 1461 1460 1459 1458 1457 1456 1456 1456 1456 1455 1454 1453 1452 1451 1451 1450 1449 1448 1447 1445